TIANLIAN 1-02

Last updated on Nov. 15, 2019, 4:20 a.m. UTC

1 37737U 11032A   19318.51793009 -.00000003  00000-0  00000+0 0  9993
2 37737   2.8243  73.2100 0015620 122.9937 214.6083  1.00270355 30581
UTC
Height (km)
Latitude
Longitude
Inclination
Orbital Period
UTC large
Height (km)
Speed (km/s)
/
Latitude / Longitude
Inclination (degrees)
Orbital Period (minutes)
Azimuth
Elevation
Range (km)
Doppler Factor
iOS Compass Heading
iOS Angle

Next 30 passes for location: Hong Kong

Rise time Rise Azimuth (degrees) Set time Set Azimuth (degrees) Duration Max altitude (degrees)

No matching passes for this satellites